{"data":{"norad_id":61203,"intl_designator":"2024-171D","name":"STARLINK-11292 [DTC]","alt_names":[],"object_type":"PAYLOAD","status":"ACTIVE","operator":null,"country":"US","launch_date":"2024-09-20","launch_site_code":"AFWTR","launch_vehicle":null,"mission":null,"orbit_class":"UNKNOWN","rcs_meters":null,"size_class":null,"mass_kg":null,"dimensions":null,"purposes":["comms"],"wikipedia_slug":null,"has_3d_model":false,"image_url":null,"decayed_at":null,"tle_current":{"epoch":"2026-05-25T01:29:35.369088Z","epoch_age_seconds":70001,"freshness":"FRESH","line1":"1 61203U 24171D   26145.06221492  .00002169  00000+0  22750-4 0  9998","line2":"2 61203  53.1583 159.7870 0000700  73.9937 286.1158 15.69710525 96390","mean_motion":15.69710525,"eccentricity":7.0e-5,"inclination_deg":53.1583,"raan_deg":159.787,"arg_perigee_deg":73.9937,"mean_anomaly_deg":286.1158,"bstar":2.275e-5,"rev_number":9639,"period_min":91.736659534725,"perigee_km":359.25359771379,"apogee_km":360.19689842852,"semimajor_km":6737.8622480712,"source":"CELESTRAK","updated_at":"2026-05-25T13:38:19.358871Z"}}}